Weather History for Waskish, MN

Change the Weather History Date:

Tuesday, April 29, 2014

  Actual Average (KBDE) Record (KBDE)
Temperature  
Mean Temperature 43 °F -  
Max Temperature 53 °F 61 °F 88 °F (1952)
Min Temperature 33 °F 35 °F 11 °F (1958)
Degree Days  
Heating Degree Days 22    
Moisture  
Dew Point 26 °F    
Average Humidity 54    
Maximum Humidity 100    
Minimum Humidity 37    
Precipitation  
Precipitation 0.01 in - - ()
Sea Level Pressure  
Sea Level Pressure 29.97 in    
Wind  
Wind Speed 15 mph (NNE)    
Max Wind Speed 24 mph    
Max Gust Speed 32 mph    
Visibility 10 miles    
Events Rain    
Averages and records for this station are not official NWS values.
T = Trace of Precipitation, MM = Missing Value Source: NWS Daily Summary

Daily Weather History Graph

Daily Weather History Graph

Search for Another Location

Airport:

Trip Planner

Search our weather history database for the weather conditions in past years. The results will help you decide how hot, cold, wet, or windy it might be!

Date:

Astronomy

Apr. 29, 2014 Rise Set
Actual Time 6:02 AM CDT 8:28 PM CDT
Civil Twilight 5:28 AM CDT 9:03 PM CDT
Nautical Twilight 4:44 AM CDT 9:47 PM CDT
Astronomical Twilight 3:55 AM CDT 10:37 PM CDT
Moon 6:22 AM CDT (4/29) 9:11 PM CDT (4/29)
Length of Visible Light 15h 35m
Length of Day
14h 26m
New Moon, 0% of the Moon is Illuminated
Apr 29
New Moon
May 6
First Quarter
May 14
Full
May 21
Last Quarter
May 28
New

Hourly Weather History & Observations

Time (CDT) Temp. Windchill Dew Point Humidity Pressure Visibility Wind Dir Wind Speed Gust Speed Precip Events Conditions
12:08 AM 44.6 °F 36.6 °F 19.4 °F 37% 29.93 in 10.0 mi ENE 19.6 mph 25.3 mph N/A   Overcast
12:29 AM 42.8 °F 34.0 °F 19.4 °F 39% 29.94 in 10.0 mi ENE 20.7 mph 29.9 mph N/A   Mostly Cloudy
12:49 AM 42.8 °F 35.1 °F 19.4 °F 39% 29.95 in 10.0 mi ENE 16.1 mph 25.3 mph N/A   Mostly Cloudy
1:08 AM 42.8 °F 34.5 °F 19.4 °F 39% 29.96 in 10.0 mi ENE 18.4 mph 26.5 mph N/A   Scattered Clouds
1:29 AM 41.0 °F 33.9 °F 19.4 °F 42% 29.96 in 10.0 mi NE 12.7 mph 16.1 mph N/A   Clear
1:49 AM 39.2 °F 31.6 °F 21.2 °F 49% 29.97 in 10.0 mi NE 12.7 mph - N/A   Clear
2:08 AM 39.2 °F 32.5 °F 21.2 °F 49% 29.97 in 10.0 mi NE 10.4 mph 17.3 mph N/A   Clear
2:29 AM 37.4 °F 29.3 °F 21.2 °F 52% 29.97 in 10.0 mi NE 12.7 mph 18.4 mph N/A   Clear
2:48 AM 37.4 °F 29.8 °F 21.2 °F 52% 29.98 in 10.0 mi NE 11.5 mph 18.4 mph N/A   Clear
3:08 AM 37.4 °F 29.8 °F 21.2 °F 52% 29.98 in 10.0 mi NE 11.5 mph 18.4 mph N/A   Clear
3:29 AM 37.4 °F 29.8 °F 21.2 °F 52% 29.98 in 10.0 mi NE 11.5 mph - N/A   Clear
4:08 AM 35.6 °F 26.6 °F 21.2 °F 56% 29.99 in 10.0 mi NE 13.8 mph 18.4 mph N/A   Clear
4:29 AM 35.6 °F 26.6 °F 21.2 °F 56% 29.99 in 10.0 mi NE 13.8 mph 19.6 mph N/A   Clear
4:48 AM 35.6 °F 27.1 °F 23.0 °F 60% 29.99 in 10.0 mi NE 12.7 mph 18.4 mph N/A   Clear
5:08 AM 35.6 °F 27.1 °F 21.2 °F 56% 29.99 in 10.0 mi NE 12.7 mph 21.9 mph N/A   Clear
5:29 AM 33.8 °F 23.9 °F 21.2 °F 60% 29.99 in 10.0 mi NE 15.0 mph 19.6 mph N/A   Clear
5:48 AM 33.8 °F 24.3 °F 21.2 °F 60% 29.99 in 10.0 mi NE 13.8 mph 18.4 mph N/A   Clear
6:08 AM 33.8 °F 24.3 °F 21.2 °F 60% 30.00 in 10.0 mi NE 13.8 mph 18.4 mph N/A   Clear
6:29 AM 33.8 °F 24.3 °F 21.2 °F 60% 30.00 in 10.0 mi NE 13.8 mph 18.4 mph N/A   Clear
6:48 AM 33.8 °F 24.8 °F 21.2 °F 60% 30.00 in 10.0 mi NE 12.7 mph - N/A   Clear
7:08 AM 35.6 °F 25.9 °F 21.2 °F 56% 30.00 in 10.0 mi NE 16.1 mph 20.7 mph N/A   Clear
7:29 AM 35.6 °F 26.6 °F 21.2 °F 56% 30.00 in 10.0 mi NE 13.8 mph 21.9 mph N/A   Clear
7:48 AM 35.6 °F 26.6 °F 21.2 °F 56% 30.00 in 10.0 mi NE 13.8 mph 21.9 mph N/A   Clear
8:08 AM 35.6 °F 25.9 °F 21.2 °F 56% 30.00 in 10.0 mi NE 16.1 mph 24.2 mph N/A   Clear
8:29 AM 37.4 °F 28.2 °F 21.2 °F 52% 30.00 in 10.0 mi NNE 16.1 mph 23.0 mph N/A   Clear
8:48 AM 39.2 °F 30.5 °F 21.2 °F 49% 30.00 in 10.0 mi NE 16.1 mph 21.9 mph N/A   Clear
9:08 AM 39.2 °F 31.2 °F 21.2 °F 49% 30.00 in 10.0 mi NE 13.8 mph 23.0 mph N/A   Clear
9:29 AM 41.0 °F 32.5 °F 21.2 °F 45% 30.00 in 10.0 mi NNE 17.3 mph 23.0 mph N/A   Clear
9:48 AM 42.8 °F 35.1 °F 23.0 °F 46% 30.00 in 10.0 mi NNE 16.1 mph 23.0 mph N/A   Clear
10:08 AM 42.8 °F 34.8 °F 23.0 °F 46% 30.00 in 10.0 mi NE 17.3 mph 27.6 mph N/A   Clear
10:29 AM 44.6 °F 37.4 °F 24.8 °F 46% 29.99 in 10.0 mi North 16.1 mph 21.9 mph N/A   Clear
10:48 AM 44.6 °F 38.4 °F 24.8 °F 46% 29.99 in 10.0 mi NNE 12.7 mph 25.3 mph N/A   Clear
11:09 AM 46.4 °F 41.1 °F 24.8 °F 43% 29.99 in 10.0 mi NNE 11.5 mph 24.2 mph N/A   Clear
11:29 AM 48.2 °F - 26.6 °F 43% 29.98 in 10.0 mi North 19.6 mph 26.5 mph N/A   Clear
11:48 AM 48.2 °F - 26.6 °F 43% 29.98 in 10.0 mi NNE 17.3 mph 26.5 mph N/A   Clear
12:09 PM 48.2 °F - 26.6 °F 43% 29.97 in 10.0 mi NNE 16.1 mph 29.9 mph N/A   Clear
12:29 PM 50.0 °F - 28.4 °F 43% 29.97 in 10.0 mi NE 15.0 mph 26.5 mph N/A   Clear
12:48 PM 50.0 °F - 28.4 °F 43% 29.96 in 10.0 mi NE 16.1 mph 27.6 mph N/A   Clear
1:09 PM 51.8 °F - 28.4 °F 41% 29.94 in 10.0 mi ENE 17.3 mph 27.6 mph N/A   Clear
1:29 PM 51.8 °F - 28.4 °F 41% 29.94 in 10.0 mi NNE 17.3 mph 25.3 mph N/A   Clear
1:48 PM 51.8 °F - 28.4 °F 41% 29.93 in 10.0 mi NNE 17.3 mph 28.8 mph N/A   Clear
2:09 PM 51.8 °F - 28.4 °F 41% 29.93 in 10.0 mi NNE 20.7 mph 27.6 mph N/A   Clear
2:29 PM 51.8 °F - 28.4 °F 41% 29.93 in 10.0 mi NNE 19.6 mph 27.6 mph N/A   Clear
2:48 PM 51.8 °F - 28.4 °F 41% 29.92 in 10.0 mi North 17.3 mph 29.9 mph N/A   Clear
3:09 PM 53.6 °F - 28.4 °F 38% 29.91 in 10.0 mi North 17.3 mph 25.3 mph N/A   Clear
3:29 PM 51.8 °F - 28.4 °F 41% 29.92 in 10.0 mi NNE 18.4 mph 27.6 mph N/A   Clear
4:09 PM 50.0 °F - 26.6 °F 40% 29.93 in 10.0 mi NNE 19.6 mph 32.2 mph N/A   Scattered Clouds
4:28 PM 51.8 °F - 26.6 °F 38% 29.92 in 10.0 mi North 21.9 mph 28.8 mph N/A   Clear
4:48 PM 51.8 °F - 26.6 °F 38% 29.93 in 10.0 mi North 21.9 mph 29.9 mph N/A   Scattered Clouds
5:09 PM 51.8 °F - 26.6 °F 38% 29.93 in 10.0 mi NNE 15.0 mph 23.0 mph N/A   Scattered Clouds
5:28 PM 50.0 °F - 26.6 °F 40% 29.93 in 10.0 mi NNE 17.3 mph 26.5 mph N/A   Clear
5:48 PM 50.0 °F - 26.6 °F 40% 29.94 in 10.0 mi NNE 16.1 mph 27.6 mph N/A   Clear
6:09 PM 50.0 °F - 26.6 °F 40% 29.94 in 10.0 mi North 24.2 mph 29.9 mph N/A   Clear
6:28 PM 48.2 °F - 28.4 °F 46% 29.95 in 10.0 mi NNE 13.8 mph 23.0 mph N/A   Scattered Clouds
6:48 PM 48.2 °F - 28.4 °F 46% 29.96 in 10.0 mi NNE 10.4 mph 21.9 mph N/A   Scattered Clouds
7:09 PM 48.2 °F - 28.4 °F 46% 29.96 in 10.0 mi NNE 10.4 mph 21.9 mph N/A   Mostly Cloudy
7:48 PM 46.4 °F 39.8 °F 28.4 °F 50% 29.97 in 10.0 mi NNE 16.1 mph 25.3 mph N/A   Mostly Cloudy
8:09 PM 44.6 °F 37.8 °F 30.2 °F 57% 29.98 in 10.0 mi NE 15.0 mph 24.2 mph N/A   Drizzle
8:28 PM 42.8 °F 35.1 °F 33.8 °F 70% 29.99 in 10.0 mi NE 16.1 mph 24.2 mph N/A   Light Drizzle
8:48 PM 41.0 °F 33.5 °F 33.8 °F 76% 29.99 in 10.0 mi NE 13.8 mph 23.0 mph N/A   Light Drizzle
9:09 PM 39.2 °F 33.6 °F 33.8 °F 81% 30.00 in 10.0 mi NNE 8.1 mph - N/A   Drizzle
9:28 PM 39.2 °F 32.5 °F 35.6 °F 87% 30.00 in 10.0 mi NNE 10.4 mph 16.1 mph N/A   Drizzle
9:48 PM 37.4 °F 29.3 °F 35.6 °F 93% 29.99 in 10.0 mi NNE 12.7 mph 17.3 mph N/A Rain Light Rain
10:09 PM 37.4 °F 30.3 °F 35.6 °F 93% 29.98 in 10.0 mi NNE 10.4 mph 16.1 mph N/A   Drizzle
10:27 PM 37.4 °F 32.1 °F 35.6 °F 93% 29.98 in 10.0 mi NNE 6.9 mph 17.3 mph N/A   Light Drizzle
10:48 PM 37.4 °F 29.8 °F 35.6 °F 93% 29.97 in 10.0 mi NNE 11.5 mph - N/A   Drizzle
11:09 PM 37.4 °F 30.3 °F 35.6 °F 93% 29.97 in 10.0 mi North 10.4 mph - 0.01 in Rain Light Rain
11:28 PM 35.6 °F 28.6 °F 35.6 °F 100% 29.96 in 10.0 mi North 9.2 mph - 0.01 in Rain Light Rain
11:48 PM 35.6 °F 28.6 °F 33.8 °F 93% 29.95 in 7.0 mi North 9.2 mph - 0.01 in Rain Rain